Tracking 18856 objects as of 11-Dec-2017
HD Live streaming from Space Station
objects crossing your sky now

SL-14 R/B

Track SL-14 R/B now!
10-day predictions
SL-14 R/B is classified as:


NORAD ID: 11267
Int'l Code: 1979-011B
Perigee: 596.7 km
Apogee: 620.5 km
Inclination: 82.5 °
Period: 96.7 minutes
Semi major axis: 6979 km
RCS: 4.4018 m2 (large)
Launch date: February 12, 1979
Source: Commonwealth of Independent States (former USSR) (CIS)
Launch site: PLESETSK MISSILE AND SPACE COMPLEX (PKMTR)

Note: This is a ROCKET BODY
aabbcc
Your satellite tracking list
Your tracking list is empty




NASA's NSSDC Master Catalog

Two Line Element Set (TLE):
1 11267U 79011B   17344.78877005 +.00000087 +00000-0 +65888-5 0  9991
2 11267 082.5267 062.7602 0016999 007.8462 352.3019 14.88873011101740
Source of the keplerian elements: AFSPC